RPT10 TIST-KMIA

Flight info

Callsign RPT10
Flight time 2h 31m
Altitude 34000
Route PALCO7 PALCO RTE6 SJU DCT ACONY Y308 MADIZ VIICE2
Aircraft B738/M-SDE2E3FGHIRWXY/LB1

Departure

Time 2026-05-04 18:33
Airport Cyril E. King Airport (TIST)

Arrival

Time 2026-05-04 21:05
Airport Miami International Airport (KMIA)
Time Latitude Longitude Altitude Speed Heading
2026-05-04 18:20 18.33563 -64.97250 29 ft 0 kts 178°
2026-05-04 18:27 18.33575 -64.97250 29 ft 2 kts 178°
2026-05-04 18:27 18.33590 -64.97251 29 ft 2 kts 178°
2026-05-04 18:28 18.33605 -64.97252 29 ft 2 kts 178°
2026-05-04 18:28 18.33620 -64.97251 29 ft 2 kts 206°
2026-05-04 18:28 18.33631 -64.97240 29 ft 2 kts 243°
2026-05-04 18:28 18.33634 -64.97231 29 ft 0 kts 268°
2026-05-04 18:29 18.33634 -64.97223 30 ft 0 kts 271°
2026-05-04 18:30 18.33634 -64.97250 29 ft 12 kts 271°
2026-05-04 18:31 18.33629 -64.97409 26 ft 27 kts 260°
2026-05-04 18:31 18.33607 -64.97607 23 ft 25 kts 265°
2026-05-04 18:31 18.33597 -64.97787 22 ft 24 kts 269°
2026-05-04 18:31 18.33592 -64.97959 21 ft 22 kts 267°
2026-05-04 18:32 18.33582 -64.98117 21 ft 20 kts 266°
2026-05-04 18:32 18.33575 -64.98264 21 ft 19 kts 270°
2026-05-04 18:32 18.33653 -64.98337 21 ft 15 kts
2026-05-04 18:32 18.33691 -64.98205 21 ft 46 kts 87°
2026-05-04 18:33 18.33716 -64.97600 24 ft 118 kts 87°
2026-05-04 18:33 18.33770 -64.96518 102 ft 170 kts 90°
2026-05-04 18:33 18.33752 -64.95350 1070 ft 156 kts 104°
2026-05-04 18:33 18.33293 -64.94309 1675 ft 170 kts 128°
2026-05-04 18:34 18.32316 -64.93552 2184 ft 188 kts 153°
2026-05-04 18:34 18.30950 -64.93310 2745 ft 208 kts 184°
2026-05-04 18:34 18.29676 -64.93897 3671 ft 209 kts 215°
2026-05-04 18:34 18.28622 -64.95065 4092 ft 232 kts 226°
2026-05-04 18:35 18.27599 -64.96448 4616 ft 249 kts 230°
2026-05-04 18:35 18.26563 -64.97995 5188 ft 265 kts 235°
2026-05-04 18:35 18.25781 -64.99807 5739 ft 285 kts 255°
2026-05-04 18:35 18.25733 -65.01920 6481 ft 295 kts 276°
2026-05-04 18:36 18.26083 -65.04020 7363 ft 296 kts 280°
2026-05-04 18:36 18.26485 -65.06149 8151 ft 298 kts 280°
2026-05-04 18:36 18.26867 -65.08285 9016 ft 299 kts 280°
2026-05-04 18:36 18.27278 -65.10422 9828 ft 301 kts 281°
2026-05-04 18:37 18.27722 -65.12582 10497 ft 308 kts 282°
2026-05-04 18:37 18.28182 -65.14821 10921 ft 322 kts 282°
2026-05-04 18:37 18.28658 -65.17175 11359 ft 336 kts 281°
2026-05-04 18:37 18.29147 -65.19626 11760 ft 350 kts 281°
2026-05-04 18:38 18.29656 -65.22196 12150 ft 365 kts 281°
2026-05-04 18:38 18.30179 -65.24860 12695 ft 372 kts 281°
2026-05-04 18:38 18.30705 -65.27535 13398 ft 374 kts 281°
2026-05-04 18:38 18.31230 -65.30199 14113 ft 375 kts 281°
2026-05-04 18:39 18.31758 -65.32880 14781 ft 377 kts 281°
2026-05-04 18:39 18.32293 -65.35600 15512 ft 377 kts 281°
2026-05-04 18:39 18.32820 -65.38286 16184 ft 378 kts 281°
2026-05-04 18:39 18.33353 -65.41001 16837 ft 380 kts 281°
2026-05-04 18:40 18.33888 -65.43727 17443 ft 382 kts 281°
2026-05-04 18:40 18.34424 -65.46461 17967 ft 387 kts 281°
2026-05-04 18:40 18.34968 -65.49240 18452 ft 392 kts 281°
2026-05-04 18:40 18.35523 -65.52071 18958 ft 396 kts 281°
2026-05-04 18:41 18.36076 -65.54900 19429 ft 401 kts 282°
2026-05-04 18:41 18.36640 -65.57780 19884 ft 406 kts 282°
2026-05-04 18:41 18.37214 -65.60715 20369 ft 409 kts 282°
2026-05-04 18:41 18.37794 -65.63682 20804 ft 414 kts 282°
2026-05-04 18:42 18.38372 -65.66647 21227 ft 419 kts 281°
2026-05-04 18:42 18.38964 -65.69678 21612 ft 424 kts 281°
2026-05-04 18:42 18.39554 -65.72702 22041 ft 428 kts 281°
2026-05-04 18:42 18.40155 -65.75793 22420 ft 433 kts 281°
2026-05-04 18:43 18.40762 -65.78918 22993 ft 433 kts 281°
2026-05-04 18:43 18.41361 -65.81999 23466 ft 435 kts 282°
2026-05-04 18:43 18.41970 -65.85137 23958 ft 437 kts 282°
2026-05-04 18:43 18.42577 -65.88274 24423 ft 439 kts 282°
2026-05-04 18:44 18.43188 -65.91430 24881 ft 441 kts 282°
2026-05-04 18:44 18.43630 -65.93520 25176 ft 442 kts 284°
2026-05-04 18:44 18.44903 -65.97620 25759 ft 444 kts 295°
2026-05-04 18:44 18.46389 -66.00484 26194 ft 445 kts 304°
2026-05-04 18:45 18.48287 -66.03051 26576 ft 447 kts 312°
2026-05-04 18:45 18.50427 -66.05396 27020 ft 448 kts 316°
2026-05-04 18:45 18.52709 -66.07667 27506 ft 448 kts 317°
2026-05-04 18:45 18.54985 -66.09857 27893 ft 450 kts 318°
2026-05-04 18:46 18.57303 -66.12080 28310 ft 451 kts 317°
2026-05-04 18:46 18.59631 -66.14328 28647 ft 454 kts 317°
2026-05-04 18:46 18.61954 -66.16596 29071 ft 455 kts 317°
2026-05-04 18:46 18.64273 -66.18883 29471 ft 456 kts 316°
2026-05-04 18:47 18.66556 -66.21156 29969 ft 454 kts 316°
2026-05-04 18:47 18.68871 -66.23474 30413 ft 454 kts 316°
2026-05-04 18:47 18.71152 -66.25771 30834 ft 454 kts 316°
2026-05-04 18:47 18.73424 -66.28065 31229 ft 454 kts 316°
2026-05-04 18:48 18.75678 -66.30348 31668 ft 453 kts 315°
2026-05-04 18:48 18.77964 -66.32667 32059 ft 453 kts 315°
2026-05-04 18:48 18.80239 -66.34977 32460 ft 452 kts 315°
2026-05-04 18:48 18.82475 -66.37248 32910 ft 450 kts 315°
2026-05-04 18:49 18.84729 -66.39539 33466 ft 446 kts 315°
2026-05-04 18:49 18.86954 -66.41801 33968 ft 444 kts 315°
2026-05-04 18:49 18.89177 -66.44061 34017 ft 446 kts 315°
2026-05-04 18:50 18.93381 -66.48867 34016 ft 441 kts 307°
2026-05-04 18:50 18.97011 -66.54102 34011 ft 443 kts 304°
2026-05-04 18:51 19.00475 -66.59467 34008 ft 442 kts 303°
2026-05-04 18:51 19.03925 -66.64857 34006 ft 444 kts 303°
2026-05-04 18:52 19.07369 -66.70216 34001 ft 443 kts 303°
2026-05-04 18:52 19.10846 -66.75600 34000 ft 442 kts 303°
2026-05-04 18:53 19.14314 -66.80969 33998 ft 443 kts 303°
2026-05-04 18:53 19.17764 -66.86316 34000 ft 442 kts 303°
2026-05-04 18:54 19.21234 -66.91698 33996 ft 443 kts 303°
2026-05-04 18:54 19.24715 -66.97098 33999 ft 444 kts 303°
2026-05-04 18:55 19.28175 -67.02470 33999 ft 443 kts 303°
2026-05-04 18:55 19.33367 -67.10541 33997 ft 442 kts 303°
2026-05-04 18:56 19.36812 -67.15902 33997 ft 441 kts 303°
2026-05-04 18:56 19.40247 -67.21242 33995 ft 441 kts 303°
2026-05-04 18:57 19.43701 -67.26620 33996 ft 442 kts 303°
2026-05-04 18:57 19.47147 -67.32003 33998 ft 440 kts 303°
2026-05-04 18:58 19.50575 -67.37351 34001 ft 441 kts 303°
2026-05-04 18:58 19.54030 -67.42748 34002 ft 442 kts 303°
2026-05-04 18:59 19.57448 -67.48096 34004 ft 440 kts 303°
2026-05-04 18:59 19.60873 -67.53460 34004 ft 440 kts 302°
2026-05-04 19:00 19.64293 -67.58822 34005 ft 440 kts 302°
2026-05-04 19:00 19.67712 -67.64190 34005 ft 439 kts 302°
2026-05-04 19:01 19.71136 -67.69563 34005 ft 439 kts 302°
2026-05-04 19:01 19.74542 -67.74906 34007 ft 439 kts 302°
2026-05-04 19:02 19.77968 -67.80286 34006 ft 440 kts 302°
2026-05-04 19:02 19.81403 -67.85689 34006 ft 440 kts 302°
2026-05-04 19:03 19.84818 -67.91070 34007 ft 438 kts 302°
2026-05-04 19:03 19.88219 -67.96435 34007 ft 439 kts 302°
2026-05-04 19:04 19.91624 -68.01814 34009 ft 437 kts 302°
2026-05-04 19:04 19.95013 -68.07173 34007 ft 439 kts 302°
2026-05-04 19:05 19.98405 -68.12530 34007 ft 437 kts 302°
2026-05-04 19:05 20.01793 -68.17881 34008 ft 438 kts 302°
2026-05-04 19:06 20.05172 -68.23238 34006 ft 438 kts 302°
2026-05-04 19:06 20.08561 -68.28613 34007 ft 437 kts 302°
2026-05-04 19:07 20.11944 -68.33979 34009 ft 437 kts 302°
2026-05-04 19:07 20.15323 -68.39348 34008 ft 435 kts 302°
2026-05-04 19:08 20.18688 -68.44692 34009 ft 436 kts 302°
2026-05-04 19:08 20.22064 -68.50069 34010 ft 436 kts 302°
2026-05-04 19:09 20.25426 -68.55424 34008 ft 435 kts 301°
2026-05-04 19:09 20.28594 -68.60908 34008 ft 435 kts 298°
2026-05-04 19:10 20.31580 -68.66493 34008 ft 434 kts 297°
2026-05-04 19:10 20.34567 -68.72092 34009 ft 434 kts 297°
2026-05-04 19:11 20.37563 -68.77651 34009 ft 434 kts 298°
2026-05-04 19:11 20.40566 -68.83193 34009 ft 433 kts 298°
2026-05-04 19:12 20.45072 -68.91499 34009 ft 433 kts 298°
2026-05-04 19:13 20.48075 -68.97037 34008 ft 433 kts 297°
2026-05-04 19:13 20.51085 -69.02589 34009 ft 434 kts 298°
2026-05-04 19:14 20.54106 -69.08164 34006 ft 433 kts 298°
2026-05-04 19:14 20.57107 -69.13710 34001 ft 431 kts 297°
2026-05-04 19:15 20.60091 -69.19228 34002 ft 433 kts 297°
2026-05-04 19:15 20.63097 -69.24799 33997 ft 431 kts 297°
2026-05-04 19:16 20.66069 -69.30309 33993 ft 430 kts 298°
2026-05-04 19:16 20.69058 -69.35857 33987 ft 431 kts 297°
2026-05-04 19:17 20.72050 -69.41404 33992 ft 431 kts 297°
2026-05-04 19:17 20.75033 -69.46951 33989 ft 431 kts 297°
2026-05-04 19:18 20.77989 -69.52451 33990 ft 429 kts 297°
2026-05-04 19:18 20.80961 -69.57975 33987 ft 428 kts 297°
2026-05-04 19:19 20.83907 -69.63472 33983 ft 428 kts 297°
2026-05-04 19:19 20.86872 -69.69014 33981 ft 428 kts 297°
2026-05-04 19:20 20.89821 -69.74526 33983 ft 428 kts 297°
2026-05-04 19:20 20.92763 -69.80033 33992 ft 428 kts 297°
2026-05-04 19:21 20.95716 -69.85562 33992 ft 427 kts 297°
2026-05-04 19:21 20.98659 -69.91076 33993 ft 428 kts 297°
2026-05-04 19:22 21.01597 -69.96580 33991 ft 426 kts 297°
2026-05-04 19:22 21.04527 -70.02080 33990 ft 426 kts 297°
2026-05-04 19:23 21.07465 -70.07598 33989 ft 427 kts 297°
2026-05-04 19:23 21.10397 -70.13118 33992 ft 425 kts 296°
2026-05-04 19:24 21.13299 -70.18596 33984 ft 426 kts 297°
2026-05-04 19:24 21.16208 -70.24082 33992 ft 425 kts 297°
2026-05-04 19:25 21.19142 -70.29611 33991 ft 426 kts 297°
2026-05-04 19:25 21.22052 -70.35109 33987 ft 426 kts 297°
2026-05-04 19:26 21.24968 -70.40623 33988 ft 425 kts 297°
2026-05-04 19:26 21.27884 -70.46139 33990 ft 425 kts 296°
2026-05-04 19:27 21.30782 -70.51636 33988 ft 425 kts 296°
2026-05-04 19:27 21.33674 -70.57125 33985 ft 425 kts 296°
2026-05-04 19:28 21.36583 -70.62645 33987 ft 425 kts 296°
2026-05-04 19:28 21.39499 -70.68188 33992 ft 426 kts 296°
2026-05-04 19:29 21.42378 -70.73663 33990 ft 424 kts 296°
2026-05-04 19:29 21.45274 -70.79177 33991 ft 423 kts 296°
2026-05-04 19:30 21.48164 -70.84689 33989 ft 424 kts 296°
2026-05-04 19:30 21.51047 -70.90199 33987 ft 424 kts 296°
2026-05-04 19:31 21.53925 -70.95699 33989 ft 424 kts 296°
2026-05-04 19:31 21.56812 -71.01219 33989 ft 425 kts 296°
2026-05-04 19:32 21.59651 -71.06755 33985 ft 422 kts 295°
2026-05-04 19:32 21.62356 -71.12335 33988 ft 425 kts 294°
2026-05-04 19:33 21.65063 -71.17973 33986 ft 422 kts 294°
2026-05-04 19:33 21.67771 -71.23572 33988 ft 423 kts 294°
2026-05-04 19:34 21.70484 -71.29172 33990 ft 424 kts 294°
2026-05-04 19:34 21.73199 -71.34769 33988 ft 423 kts 294°
2026-05-04 19:35 21.75908 -71.40354 33988 ft 423 kts 294°
2026-05-04 19:35 21.78628 -71.45958 33988 ft 421 kts 294°
2026-05-04 19:36 21.81319 -71.51515 33990 ft 422 kts 294°
2026-05-04 19:36 21.84016 -71.57098 33986 ft 420 kts 294°
2026-05-04 19:37 21.86719 -71.62702 33987 ft 422 kts 294°
2026-05-04 19:37 21.89423 -71.68308 33988 ft 422 kts 294°
2026-05-04 19:38 21.92104 -71.73875 33989 ft 421 kts 293°
2026-05-04 19:38 21.94790 -71.79472 33988 ft 422 kts 293°
2026-05-04 19:39 21.97478 -71.85068 33988 ft 421 kts 294°
2026-05-04 19:39 22.00164 -71.90647 33988 ft 421 kts 294°
2026-05-04 19:40 22.02844 -71.96226 33988 ft 421 kts 293°
2026-05-04 19:40 22.05522 -72.01811 33987 ft 418 kts 293°
2026-05-04 19:41 22.08187 -72.07380 33988 ft 420 kts 293°
2026-05-04 19:41 22.10871 -72.12992 33987 ft 420 kts 293°
2026-05-04 19:42 22.13527 -72.18558 33988 ft 419 kts 294°
2026-05-04 19:42 22.16200 -72.24166 33988 ft 419 kts 293°
2026-05-04 19:43 22.18845 -72.29724 33988 ft 419 kts 293°
2026-05-04 19:43 22.21507 -72.35314 33987 ft 418 kts 293°
2026-05-04 19:44 22.24147 -72.40870 33987 ft 417 kts 293°
2026-05-04 19:44 22.26799 -72.46455 33987 ft 417 kts 293°
2026-05-04 19:45 22.29422 -72.51992 33988 ft 417 kts 293°
2026-05-04 19:45 22.32074 -72.57586 33987 ft 416 kts 292°
2026-05-04 19:46 22.34692 -72.63117 33987 ft 417 kts 292°
2026-05-04 19:46 22.37326 -72.68683 33987 ft 415 kts 292°
2026-05-04 19:47 22.39947 -72.74239 33987 ft 417 kts 292°
2026-05-04 19:47 22.42565 -72.79783 33987 ft 414 kts 292°
2026-05-04 19:48 22.45177 -72.85327 33987 ft 415 kts 292°
2026-05-04 19:48 22.47794 -72.90893 33987 ft 415 kts 292°
2026-05-04 19:49 22.50415 -72.96458 33987 ft 415 kts 292°
2026-05-04 19:49 22.53018 -73.01998 33987 ft 415 kts 292°
2026-05-04 19:50 22.55619 -73.07550 33987 ft 414 kts 292°
2026-05-04 19:50 22.58217 -73.13086 33987 ft 414 kts 292°
2026-05-04 19:51 22.60815 -73.18652 33986 ft 413 kts 292°
2026-05-04 19:51 22.63408 -73.24197 33985 ft 414 kts 292°
2026-05-04 19:52 22.65990 -73.29717 33980 ft 413 kts 292°
2026-05-04 19:52 22.68574 -73.35265 33976 ft 415 kts 292°
2026-05-04 19:53 22.71156 -73.40818 33975 ft 413 kts 292°
2026-05-04 19:53 22.73723 -73.46341 33975 ft 412 kts 292°
2026-05-04 19:54 22.76299 -73.51890 33973 ft 412 kts 292°
2026-05-04 19:54 22.78860 -73.57410 33972 ft 413 kts 292°
2026-05-04 19:55 22.81443 -73.62979 33973 ft 412 kts 292°
2026-05-04 19:55 22.83999 -73.68504 33973 ft 413 kts 291°
2026-05-04 19:56 22.86549 -73.74025 33978 ft 410 kts 292°
2026-05-04 19:56 22.89101 -73.79559 33984 ft 412 kts 291°
2026-05-04 19:57 22.91669 -73.85120 33984 ft 411 kts 291°
2026-05-04 19:57 22.94220 -73.90644 33985 ft 410 kts 291°
2026-05-04 19:58 22.96768 -73.96176 33987 ft 411 kts 291°
2026-05-04 19:58 22.99308 -74.01698 33987 ft 409 kts 291°
2026-05-04 19:59 23.01857 -74.07241 33987 ft 412 kts 291°
2026-05-04 19:59 23.04415 -74.12812 33990 ft 412 kts 291°
2026-05-04 20:00 23.06955 -74.18362 33990 ft 411 kts 291°
2026-05-04 20:00 23.09494 -74.23904 33989 ft 410 kts 291°
2026-05-04 20:01 23.12049 -74.29497 33988 ft 411 kts 291°
2026-05-04 20:01 23.14596 -74.35066 33988 ft 409 kts 291°
2026-05-04 20:02 23.17103 -74.40566 33990 ft 411 kts 291°
2026-05-04 20:02 23.19641 -74.46121 33988 ft 410 kts 291°
2026-05-04 20:03 23.22164 -74.51656 33987 ft 410 kts 291°
2026-05-04 20:03 23.24690 -74.57222 33988 ft 409 kts 291°
2026-05-04 20:04 23.27201 -74.62749 33992 ft 411 kts 291°
2026-05-04 20:04 23.29727 -74.68317 33984 ft 407 kts 290°
2026-05-04 20:05 23.32231 -74.73864 33989 ft 411 kts 290°
2026-05-04 20:05 23.34737 -74.79398 33992 ft 408 kts 290°
2026-05-04 20:06 23.37254 -74.84957 33984 ft 410 kts 291°
2026-05-04 20:06 23.39688 -74.90541 33992 ft 405 kts 287°
2026-05-04 20:07 23.41562 -74.96318 33986 ft 404 kts 283°
2026-05-04 20:07 23.43257 -75.02147 33988 ft 405 kts 283°
2026-05-04 20:08 23.44973 -75.07950 33989 ft 405 kts 284°
2026-05-04 20:08 23.46723 -75.13744 33989 ft 403 kts 283°
2026-05-04 20:09 23.48482 -75.19541 33985 ft 404 kts 284°
2026-05-04 20:09 23.50235 -75.25329 33984 ft 403 kts 284°
2026-05-04 20:10 23.51991 -75.31123 33989 ft 402 kts 284°
2026-05-04 20:10 23.53737 -75.36918 33985 ft 404 kts 284°
2026-05-04 20:11 23.55477 -75.42687 33984 ft 403 kts 283°
2026-05-04 20:11 23.57219 -75.48450 33990 ft 401 kts 284°
2026-05-04 20:12 23.58970 -75.54234 33980 ft 402 kts 284°
2026-05-04 20:12 23.60710 -75.60031 33990 ft 403 kts 283°
2026-05-04 20:13 23.62436 -75.65791 33985 ft 401 kts 284°
2026-05-04 20:13 23.64175 -75.71595 33986 ft 401 kts 283°
2026-05-04 20:14 23.65887 -75.77316 33976 ft 399 kts 284°
2026-05-04 20:14 23.67624 -75.83131 33981 ft 399 kts 283°
2026-05-04 20:15 23.69338 -75.88882 33984 ft 400 kts 283°
2026-05-04 20:15 23.71043 -75.94621 33978 ft 399 kts 283°
2026-05-04 20:16 23.72763 -76.00406 33976 ft 398 kts 283°
2026-05-04 20:16 23.74479 -76.06158 33970 ft 398 kts 283°
2026-05-04 20:17 23.76179 -76.11870 33969 ft 398 kts 284°
2026-05-04 20:17 23.77885 -76.17645 33967 ft 399 kts 284°
2026-05-04 20:18 23.79579 -76.23385 33969 ft 397 kts 284°
2026-05-04 20:18 23.81271 -76.29121 33972 ft 399 kts 283°
2026-05-04 20:19 23.82964 -76.34847 33968 ft 397 kts 284°
2026-05-04 20:19 23.84669 -76.40600 33969 ft 401 kts 283°
2026-05-04 20:20 23.86369 -76.46387 33968 ft 398 kts 283°
2026-05-04 20:20 23.88060 -76.52161 33967 ft 399 kts 284°
2026-05-04 20:21 23.89744 -76.57930 33962 ft 401 kts 283°
2026-05-04 20:21 23.92276 -76.66619 33965 ft 399 kts 283°
2026-05-04 20:22 23.93977 -76.72437 33968 ft 397 kts 283°
2026-05-04 20:22 23.95654 -76.78170 33967 ft 398 kts 283°
2026-05-04 20:23 23.97327 -76.83926 33973 ft 399 kts 283°
2026-05-04 20:23 23.99012 -76.89713 33964 ft 399 kts 283°
2026-05-04 20:24 24.00695 -76.95493 33975 ft 400 kts 283°
2026-05-04 20:24 24.02377 -77.01297 33967 ft 400 kts 284°
2026-05-04 20:25 24.04047 -77.07083 33968 ft 399 kts 283°
2026-05-04 20:25 24.05707 -77.12848 33965 ft 398 kts 284°
2026-05-04 20:26 24.07372 -77.18616 33961 ft 399 kts 284°
2026-05-04 20:26 24.09040 -77.24402 33966 ft 400 kts 284°
2026-05-04 20:27 24.10723 -77.30199 33963 ft 399 kts 285°
2026-05-04 20:27 24.13126 -77.35715 33967 ft 408 kts 295°
2026-05-04 20:28 24.16085 -77.40975 33960 ft 407 kts 297°
2026-05-04 20:28 24.19098 -77.46204 33964 ft 407 kts 297°
2026-05-04 20:29 24.22092 -77.51485 33963 ft 407 kts 297°
2026-05-04 20:29 24.25030 -77.56731 33971 ft 405 kts 297°
2026-05-04 20:30 24.27984 -77.62013 33966 ft 407 kts 296°
2026-05-04 20:30 24.30902 -77.67287 33966 ft 404 kts 296°
2026-05-04 20:31 24.33810 -77.72542 33962 ft 403 kts 295°
2026-05-04 20:31 24.36712 -77.77799 33962 ft 403 kts 296°
2026-05-04 20:32 24.39621 -77.83063 33961 ft 405 kts 296°
2026-05-04 20:32 24.42527 -77.88329 33960 ft 402 kts 296°
2026-05-04 20:33 24.45433 -77.93588 33952 ft 403 kts 295°
2026-05-04 20:33 24.48336 -77.98850 33954 ft 404 kts 296°
2026-05-04 20:34 24.51229 -78.04091 33948 ft 404 kts 296°
2026-05-04 20:34 24.54129 -78.09352 33951 ft 403 kts 296°
2026-05-04 20:35 24.57034 -78.14631 33949 ft 403 kts 296°
2026-05-04 20:35 24.59931 -78.19894 33956 ft 404 kts 295°
2026-05-04 20:36 24.62821 -78.25172 33947 ft 402 kts 295°
2026-05-04 20:36 24.65698 -78.30434 33945 ft 402 kts 296°
2026-05-04 20:37 24.68595 -78.35714 33956 ft 403 kts 295°
2026-05-04 20:37 24.71471 -78.40985 33955 ft 401 kts 296°
2026-05-04 20:38 24.74332 -78.46230 33949 ft 400 kts 296°
2026-05-04 20:38 24.77187 -78.51460 33955 ft 400 kts 296°
2026-05-04 20:39 24.80053 -78.56721 33960 ft 401 kts 296°
2026-05-04 20:39 24.82924 -78.61991 33953 ft 403 kts 296°
2026-05-04 20:40 24.85788 -78.67260 33958 ft 400 kts 296°
2026-05-04 20:40 24.88652 -78.72540 33962 ft 401 kts 296°
2026-05-04 20:41 24.91517 -78.77815 33958 ft 399 kts 296°
2026-05-04 20:41 24.94363 -78.83074 33962 ft 400 kts 296°
2026-05-04 20:42 24.97203 -78.88325 33963 ft 402 kts 296°
2026-05-04 20:42 25.00079 -78.93644 33964 ft 401 kts 296°
2026-05-04 20:43 25.01486 -78.96257 33745 ft 397 kts 296°
2026-05-04 20:43 25.02889 -78.98870 33240 ft 398 kts 295°
2026-05-04 20:43 25.04284 -79.01547 32625 ft 410 kts 296°
2026-05-04 20:43 25.05726 -79.04321 31928 ft 423 kts 296°
2026-05-04 20:44 25.07210 -79.07072 31392 ft 423 kts 297°
2026-05-04 20:44 25.08736 -79.09849 30820 ft 419 kts 297°
2026-05-04 20:44 25.10236 -79.12581 30236 ft 415 kts 297°
2026-05-04 20:44 25.11711 -79.15284 29653 ft 412 kts 297°
2026-05-04 20:45 25.13167 -79.17964 29073 ft 408 kts 297°
2026-05-04 20:45 25.14620 -79.20649 28490 ft 405 kts 297°
2026-05-04 20:45 25.16043 -79.23286 27917 ft 401 kts 297°
2026-05-04 20:45 25.17462 -79.25927 27336 ft 397 kts 297°
2026-05-04 20:46 25.18852 -79.28516 26769 ft 394 kts 297°
2026-05-04 20:46 25.20237 -79.31097 26207 ft 390 kts 297°
2026-05-04 20:46 25.21613 -79.33666 25642 ft 387 kts 298°
2026-05-04 20:46 25.22974 -79.36211 25075 ft 383 kts 298°
2026-05-04 20:47 25.24325 -79.38738 24511 ft 380 kts 297°
2026-05-04 20:47 25.25655 -79.41220 23957 ft 377 kts 297°
2026-05-04 20:47 25.26992 -79.43716 23402 ft 374 kts 297°
2026-05-04 20:47 25.28295 -79.46149 22865 ft 371 kts 297°
2026-05-04 20:48 25.29604 -79.48601 22331 ft 368 kts 297°
2026-05-04 20:48 25.30899 -79.51030 21794 ft 366 kts 297°
2026-05-04 20:48 25.32179 -79.53427 21254 ft 363 kts 297°
2026-05-04 20:48 25.33459 -79.55823 20714 ft 361 kts 297°
2026-05-04 20:49 25.34724 -79.58198 20171 ft 359 kts 297°
2026-05-04 20:49 25.35980 -79.60557 19644 ft 356 kts 297°
2026-05-04 20:49 25.37243 -79.62929 19109 ft 354 kts 297°
2026-05-04 20:49 25.38478 -79.65250 18579 ft 351 kts 297°
2026-05-04 20:50 25.39694 -79.67539 18170 ft 346 kts 296°
2026-05-04 20:50 25.40901 -79.69810 17962 ft 334 kts 297°
2026-05-04 20:50 25.42046 -79.71962 17795 ft 322 kts 296°
2026-05-04 20:50 25.43186 -79.74110 17274 ft 328 kts 296°
2026-05-04 20:51 25.44337 -79.76289 16681 ft 330 kts 296°
2026-05-04 20:51 25.45505 -79.78494 16148 ft 329 kts 296°
2026-05-04 20:51 25.46646 -79.80643 15644 ft 328 kts 296°
2026-05-04 20:51 25.47802 -79.82821 15142 ft 326 kts 297°
2026-05-04 20:52 25.48942 -79.84969 14641 ft 324 kts 297°
2026-05-04 20:52 25.50080 -79.87118 14137 ft 322 kts 297°
2026-05-04 20:52 25.51213 -79.89255 13642 ft 320 kts 297°
2026-05-04 20:52 25.52331 -79.91372 13149 ft 318 kts 297°
2026-05-04 20:53 25.53432 -79.93459 12663 ft 316 kts 297°
2026-05-04 20:53 25.54534 -79.95544 12180 ft 314 kts 297°
2026-05-04 20:53 25.55640 -79.97630 11691 ft 312 kts 297°
2026-05-04 20:53 25.56731 -79.99689 11304 ft 308 kts 297°
2026-05-04 20:54 25.57794 -80.01698 11123 ft 296 kts 297°
2026-05-04 20:54 25.58840 -80.03636 10938 ft 286 kts 299°
2026-05-04 20:54 25.59957 -80.05474 10541 ft 286 kts 302°
2026-05-04 20:54 25.61109 -80.07240 10089 ft 286 kts 303°
2026-05-04 20:55 25.62276 -80.09003 9842 ft 278 kts 302°
2026-05-04 20:55 25.63390 -80.10705 9643 ft 270 kts 302°
2026-05-04 20:55 25.64483 -80.12408 9266 ft 270 kts 302°
2026-05-04 20:55 25.65512 -80.14128 8984 ft 264 kts 296°
2026-05-04 20:56 25.66326 -80.15894 8968 ft 260 kts 292°
2026-05-04 20:56 25.67089 -80.17735 8964 ft 262 kts 292°
2026-05-04 20:56 25.67848 -80.19580 8949 ft 260 kts 292°
2026-05-04 20:56 25.68603 -80.21376 8764 ft 254 kts 292°
2026-05-04 20:57 25.69357 -80.23151 8447 ft 257 kts 293°
2026-05-04 20:57 25.70126 -80.24957 8119 ft 261 kts 293°
2026-05-04 20:57 25.70876 -80.26775 7790 ft 259 kts 290°
2026-05-04 20:57 25.71317 -80.28687 7456 ft 256 kts 273°
2026-05-04 20:58 25.71268 -80.30655 7131 ft 253 kts 265°
2026-05-04 20:58 25.71098 -80.32601 6804 ft 252 kts 264°
2026-05-04 20:58 25.70954 -80.34535 6489 ft 254 kts 266°
2026-05-04 20:58 25.70842 -80.36519 6147 ft 258 kts 267°
2026-05-04 20:59 25.70750 -80.38493 5820 ft 256 kts 268°
2026-05-04 20:59 25.70660 -80.40453 5462 ft 257 kts 268°
2026-05-04 20:59 25.70568 -80.42434 5105 ft 257 kts 268°
2026-05-04 20:59 25.70451 -80.44381 4746 ft 250 kts 265°
2026-05-04 21:00 25.70502 -80.46281 4344 ft 244 kts 290°
2026-05-04 21:00 25.71435 -80.47754 3957 ft 232 kts 329°
2026-05-04 21:00 25.72916 -80.48317 3581 ft 224 kts 354°
2026-05-04 21:00 25.74448 -80.48317 3189 ft 218 kts 19°
2026-05-04 21:01 25.75656 -80.47440 2834 ft 207 kts 50°
2026-05-04 21:01 25.76498 -80.46175 2447 ft 202 kts 56°
2026-05-04 21:01 25.77291 -80.44914 2072 ft 197 kts 55°
2026-05-04 21:01 25.77943 -80.43617 1749 ft 191 kts 76°
2026-05-04 21:02 25.78048 -80.42193 1470 ft 182 kts 88°
2026-05-04 21:02 25.78134 -80.40832 1455 ft 174 kts 82°
2026-05-04 21:02 25.78242 -80.39485 1444 ft 172 kts 85°
2026-05-04 21:02 25.78299 -80.38219 1360 ft 161 kts 85°
2026-05-04 21:03 25.78363 -80.36977 1047 ft 157 kts 86°
2026-05-04 21:03 25.78412 -80.35770 811 ft 157 kts 86°
2026-05-04 21:03 25.78468 -80.34580 584 ft 151 kts 86°
2026-05-04 21:03 25.78523 -80.33443 394 ft 146 kts 87°
2026-05-04 21:04 25.78570 -80.32301 220 ft 147 kts 86°
2026-05-04 21:04 25.78620 -80.31191 52 ft 142 kts 86°
2026-05-04 21:04 25.78667 -80.30169 12 ft 114 kts 87°
2026-05-04 21:04 25.78693 -80.29527 12 ft 59 kts 86°
2026-05-04 21:05 25.78719 -80.29089 16 ft 52 kts 85°
2026-05-04 21:05 25.78727 -80.28713 16 ft 46 kts 86°
2026-05-04 21:05 25.78835 -80.28413 16 ft 39 kts 70°
2026-05-04 21:05 25.78900 -80.28148 12 ft 34 kts 83°
2026-05-04 21:06 25.78936 -80.27907 12 ft 26 kts 52°
2026-05-04 21:06 25.79055 -80.27777 12 ft 12 kts 40°
2026-05-04 21:06 25.79092 -80.27709 12 ft 5 kts 83°
2026-05-04 21:06 25.79092 -80.27707 12 ft 0 kts 83°